Volver al catálogo

SHIYAN 12 02

SY-12 02

ActivoCienciaGEO
NORAD 50322·PAYLOAD·🇨🇳 China

Lanzado Dec 23, 2021 desde Wenchang Space Launch Site

Loading…

TLE

ActualizadoSource: Space-Track

Época: Sep 14, 2026, 19:16 UTC

1 50322U 21129B   26257.80327807 -.00000151  00000-0  00000+0 0  9991
2 50322   3.8980  78.6371 0004004  94.9351 261.7373  1.00442202 17397

Sigue SHIYAN 12 02 en tiempo real con AllMySat

Download on the App Store